This is the latest recevied weather packets stored in our database for station/object WB0OCV. If no packets are shown the sender has not sent any weather packets the latest 10 day(s).
| Time | Temp. | Humidity | Pressure | Rain* | Wind** | Luminosity | Snow |
|---|---|---|---|---|---|---|---|
| 1777899637 | 12.78° C | 65% | 1014.6 hPa | 0 mm | - | 82 W/m² | - |
| 1777899334 | 12.78° C | 69% | 1014.6 hPa | 0 mm | - | 83 W/m² | - |
| 1777899031 | 12.78° C | 68% | 1014.7 hPa | 0 mm | - | 91 W/m² | - |
| 1777898728 | 12.78° C | 70% | 1014.7 hPa | 0 mm | - | 77 W/m² | - |
| 1777898426 | 12.78° C | 70% | 1014.6 hPa | 0 mm | - | 67 W/m² | - |
| 1777898123 | 12.78° C | 69% | 1014.7 hPa | 0 mm | - | 70 W/m² | - |
| 1777897820 | 12.22° C | 69% | 1014.7 hPa | 0 mm | - | 89 W/m² | - |
| 1777897516 | 12.22° C | 70% | 1014.8 hPa | 0 mm | - | 133 W/m² | - |
| 1777897212 | 12.22° C | 71% | 1014.7 hPa | 0 mm | - | 115 W/m² | - |
| 1777896908 | 12.22° C | 71% | 1014.6 hPa | 0 mm | - | 70 W/m² | - |
| 1777896605 | 11.67° C | 72% | 1014.9 hPa | 0 mm | - | 61 W/m² | - |
| 1777896302 | 11.67° C | 72% | 1014.8 hPa | 0 mm | - | 58 W/m² | - |
| 1777896000 | 11.67° C | 72% | 1015 hPa | 0 mm | - | 56 W/m² | - |
| 1777895698 | 11.67° C | 72% | 1014.8 hPa | 0 mm | - | 60 W/m² | - |
| 1777895394 | 11.67° C | 71% | 1014.9 hPa | 0 mm | - | 63 W/m² | - |
| 1777895093 | 11.67° C | 71% | 1014.9 hPa | 0 mm | - | 88 W/m² | - |
| 1777894789 | 11.11° C | 71% | 1014.8 hPa | 0 mm | - | 51 W/m² | - |
| 1777894486 | 11.11° C | 71% | 1014.8 hPa | 0 mm | - | 50 W/m² | - |
| 1777894183 | 11.11° C | 72% | 1014.7 hPa | 0 mm | - | 47 W/m² | - |
| 1777893881 | 11.11° C | 72% | 1014.6 hPa | 0 mm | - | 44 W/m² | - |
| 1777893577 | 10.56° C | 73% | 1014.5 hPa | 0 mm | - | 43 W/m² | - |
| 1777893273 | 10.56° C | 74% | 1014.5 hPa | 0 mm | - | 44 W/m² | - |
| 1777892970 | 10.56° C | 74% | 1014.5 hPa | 0 mm | - | 40 W/m² | - |
| 1777892666 | 10° C | 75% | 1014.6 hPa | 0 mm | - | 39 W/m² | - |
| 1777892362 | 8.89° C | 79% | 1014.7 hPa | 0 mm | - | 38 W/m² | - |
* Rain latest hour (hover to see other rain measurements)
** Current wind speed in m/s (hover to see current wind gust speed)